Find Starlink 31786

NORAD ID: 59771 Int'l Des: 2024-091 Owner: SPXS Country: US Constellation: starlink operational
LEOCIRCULAR

Current View

Loading 3D Globe...

About Starlink 31786

Starlink 31786 (NORAD 59771) is a starlink constellation satellite (v2 mini) launched May 14, 2024 by SPXS of US. It operates in LEO, CIRCULAR orbit with a mass of 730.00 kg.

Upcoming Passes

Passes for default location (London). Set your location on the main map for personalized predictions.

Altitude History

Loading altitude history...

Two-Line Element Set

1 59771U 24091U 26237.58335648 .00020420 00000-0 63068-3 0 9991
2 59771 53.1593 322.5238 0001452 83.7821 178.7790 15.33540250 5869
Epoch: Aug 25, 2026 • Age: 9 hours

Current Status

Altitude 467.7 km
Apogee / Perigee N/A
Velocity 7.64 km/s
Sub-Earth Point 38.35°N, 148.38°E
Launch Date May 14, 2024
Age 2.2 years
Type internet

Technical Details

Classification Payload
Mass 730.00 kg
Dry Mass 700.00 kg
Total Mass 730.00 kg
Length 0.30 m
Diameter 4.10 m
Span 29.00 m
Shape Box + pan
Manufacturer SPXS
Bus Type Starlink V2M
Phase Status In Orbit
Owner/State SPXS/US

Most Searched